This is the latest recevied weather packets stored in our database for station/object 9M8ZAL-13. If no packets are shown the sender has not sent any weather packets the latest 10 day(s).
| Time | Temp. | Humidity | Pressure | Rain* | Wind** | Luminosity | Snow |
|---|---|---|---|---|---|---|---|
| 1777001929 | 33.33° C | - | 1008.4 hPa | - | - | 1007 W/m² | - |
| 1777001329 | 32.22° C | - | 1008.5 hPa | - | - | 1009 W/m² | - |
| 1777000729 | 32.22° C | - | 1008.6 hPa | - | - | 1007 W/m² | - |
| 1777000129 | 31.67° C | - | 1008.8 hPa | - | - | 1006 W/m² | - |
| 1776999529 | 31.11° C | - | 1008.8 hPa | - | - | 1005 W/m² | - |
| 1776998928 | 31.11° C | - | 1008.7 hPa | - | - | 1005 W/m² | - |
| 1776998328 | 31.11° C | - | 1008.9 hPa | - | - | 1006 W/m² | - |
| 1776997728 | 30.56° C | - | 1009 hPa | - | - | 1003 W/m² | - |
| 1776997128 | 31.11° C | - | 1009.2 hPa | - | - | 1004 W/m² | - |
| 1776996528 | 30.56° C | - | 1009.3 hPa | - | - | 1006 W/m² | - |
| 1776995928 | 30.56° C | - | 1009.2 hPa | - | - | 1006 W/m² | - |
| 1776995328 | 30.56° C | - | 1009.3 hPa | - | - | 1005 W/m² | - |
| 1776994729 | 30.56° C | - | 1009.3 hPa | - | - | 1005 W/m² | - |
| 1776994128 | 30° C | - | 1009.3 hPa | - | - | 1005 W/m² | - |
| 1776993528 | 30° C | - | 1009.3 hPa | - | - | 1005 W/m² | - |
| 1776992928 | 29.44° C | - | 1009.2 hPa | - | - | 1005 W/m² | - |
| 1776992328 | 29.44° C | - | 1009.2 hPa | - | - | 1005 W/m² | - |
| 1776991728 | 28.89° C | - | 1009.1 hPa | - | - | 1006 W/m² | - |
| 1776991128 | 28.89° C | - | 1009 hPa | - | - | 1006 W/m² | - |
| 1776990528 | 28.33° C | - | 1008.9 hPa | - | - | 1006 W/m² | - |
| 1776989928 | 27.78° C | - | 1008.9 hPa | - | - | 1006 W/m² | - |
| 1776989328 | 27.78° C | - | 1009 hPa | - | - | 1002 W/m² | - |
| 1776988728 | 27.78° C | - | 1009 hPa | - | - | 1001 W/m² | - |
| 1776988128 | 27.22° C | - | 1008.8 hPa | - | - | 1001 W/m² | - |
| 1776987530 | 26.67° C | - | 1008.8 hPa | - | - | 1001 W/m² | - |
* Rain since midnight (hover to see other rain measurements)
** Current wind speed in m/s (hover to see current wind gust speed)